Mullan Pass, ID

2:23 PM PDT on May 24, 2018 (GMT -0700)
Mullan Pass

Weather History for KMLP - October, 2012

Change the Weather History Date:

Tuesday, October 9, 2012

  Actual Average (K3TH) Record (K3TH)
Temperature  
Mean Temperature 44 °F -  
Max Temperature 52 °F 58 °F 77 °F (1996)
Min Temperature 36 °F 38 °F 35 °F (2000)
Degree Days  
Heating Degree Days 21    
Moisture  
Dew Point 29 °F    
Average Humidity 57    
Maximum Humidity 79    
Minimum Humidity 41    
Precipitation  
Precipitation 0.00 in - - ()
Sea Level Pressure  
Sea Level Pressure 29.93 in    
Wind  
Wind Speed 4 mph (NW)    
Max Wind Speed 7 mph    
Max Gust Speed -    
Visibility 10 miles    
Events      
Averages and records for this station are not official NWS values.
T = Trace of Precipitation, MM = Missing Value Source: NWS Daily Summary

Daily Weather History Graph

Daily Weather History Graph

Search for Another Location

Airport or City:

Astronomy

Oct. 09, 2012 Rise Set
Actual Time 6:53 AM PDT 6:05 PM PDT
Civil Twilight 6:22 AM PDT 6:35 PM PDT
Nautical Twilight 5:47 AM PDT 7:11 PM PDT
Astronomical Twilight 5:11 AM PDT 7:47 PM PDT
Moon 12:10 AM PDT (10/9) 2:56 PM PDT (10/9)
Length of Visible Light 12h 13m
Length of Day
11h 11m
Waning Crescent, 35% of the Moon is Illuminated
Oct 9
Waning Crescent
Oct 15
New
Oct 21
First Quarter
Oct 29
Full
Nov 6
Last Quarter

Hourly Weather History & Observations

Time (PDT) Temp. Windchill Dew Point Humidity Pressure Visibility Wind Dir Wind Speed Gust Speed Precip Events Conditions
12:53 AM 43.0 °F 40.3 °F 21.9 °F 43% 29.84 in 10.0 mi NNW 4.6 mph - N/A   Overcast
1:53 AM 43.0 °F 40.3 °F 23.0 °F 45% 29.87 in 10.0 mi North 4.6 mph - N/A   Overcast
2:53 AM 43.0 °F 40.3 °F 23.0 °F 45% 29.87 in 10.0 mi NNW 4.6 mph - N/A   Overcast
3:53 AM 39.9 °F - 27.0 °F 60% 29.89 in 10.0 mi Calm Calm - N/A   Overcast
4:53 AM 37.9 °F 35.5 °F 28.9 °F 70% 29.91 in 10.0 mi Variable 3.5 mph - N/A   Overcast
6:53 AM 36.0 °F 32.1 °F 30.0 °F 79% 29.94 in 10.0 mi South 4.6 mph - N/A   Clear
7:53 AM 37.0 °F 31.6 °F 30.0 °F 76% 29.95 in 10.0 mi SSE 6.9 mph - N/A   Clear
8:53 AM 39.9 °F 35.1 °F 32.0 °F 73% 29.95 in 10.0 mi SSE 6.9 mph - N/A   Clear
9:53 AM 42.1 °F 39.2 °F 32.0 °F 67% 29.99 in 10.0 mi Variable 4.6 mph - N/A   Clear
10:53 AM 45.0 °F 42.6 °F 32.0 °F 60% 29.96 in 10.0 mi Variable 4.6 mph - N/A   Clear
11:53 AM 48.0 °F - 30.9 °F 52% 29.96 in 10.0 mi Calm Calm - N/A   Clear
12:53 PM 50.0 °F - 30.0 °F 46% 29.94 in 10.0 mi Calm Calm - N/A   Clear
1:53 PM 52.0 °F - 28.9 °F 41% 29.92 in 10.0 mi Variable 3.5 mph - N/A   Clear
2:53 PM 51.1 °F - 28.0 °F 41% 29.92 in 10.0 mi NNW 5.8 mph - N/A   Clear
3:53 PM 50.0 °F - 28.9 °F 44% 29.93 in 10.0 mi Variable 6.9 mph - N/A   Clear
4:53 PM 48.0 °F - 28.9 °F 48% 29.98 in 10.0 mi Variable 5.8 mph - N/A   Clear
5:53 PM 46.0 °F 43.1 °F 28.9 °F 51% 29.96 in 10.0 mi NW 5.8 mph - N/A   Clear
6:53 PM 44.1 °F 40.8 °F 28.9 °F 55% 29.96 in 10.0 mi NW 5.8 mph - N/A   Clear
7:53 PM 43.0 °F 39.5 °F 28.9 °F 58% 29.97 in 10.0 mi NNW 5.8 mph - N/A   Clear
8:53 PM 42.1 °F 40.2 °F 28.9 °F 60% 29.96 in 10.0 mi Variable 3.5 mph - N/A   Clear
9:53 PM 42.1 °F 39.2 °F 30.0 °F 62% 29.95 in 10.0 mi WNW 4.6 mph - N/A   Clear
10:53 PM 42.1 °F 39.2 °F 30.0 °F 62% 29.93 in 10.0 mi WNW 4.6 mph - N/A   Clear
11:53 PM 42.1 °F 39.2 °F 30.0 °F 62% 29.91 in 10.0 mi WNW 4.6 mph - N/A   Clear